Location: Praha
(50.0830°N, 14.4670°E)
Time: 16:32:42
(UTC+02:00)

ISS - Pass Details

Date: 14 May 2022
Orbit: 414 x 421 km, 51.6° (Epoch: 28 May)

Event Time Altitude Azimuth Distance (km) Brightness Sun altitude
Rises 22:29:33 0° 230° (SW) 2,350 0.0 -13.7°
Reaches altitude 10° 22:31:42 10° 223° (SW) 1,488 -1.1 -13.9°
Maximum altitude 22:34:53 42° 151° (SSE) 604 -3.5 -14.2°
Drops below altitude 10° 22:38:04 10° 79° (E) 1,492 -1.2 -14.5°
Sets 22:40:13 0° 73° (ENE) 2,356 -0.1 -14.7°
